FW2442 Weather Reports


Display with metric or nautical units.
time (UTC)temp
F
wind
direction
speed
MPH
gust
MPH
rain 1hr
in
rain 24hr
in
rain mn
in
humidity
%
barometer
mb
20260509114517 67 56 1.0 4.0 0.00 0.44 0.01 81 1017.2
20260509113518 66 84 1.0 2.0 0.00 0.44 0.01 82 1017.3
20260509112517 65 64 2.0 4.0 0.00 0.44 0.01 83 1017.2
20260509111517 64 79 1.0 2.0 0.00 0.44 0.01 87 1017.3
20260509110517 64 86 2.0 4.0 0.00 0.44 0.01 85 1017.4
20260509105516 64 69 2.0 4.0 0.00 0.44 0.01 85 1017.4
20260509104519 64 82 2.0 3.0 0.00 0.44 0.01 85 1017.4
20260509103519 64 69 1.0 2.0 0.00 0.44 0.01 85 1017.4
20260509102519 64 54 1.0 2.0 0.00 0.44 0.01 86 1017.4
20260509101517 64 51 1.0 2.0 0.00 0.44 0.01 85 1017.4
20260509100519 64 50 2.0 3.0 0.00 0.44 0.01 85 1017.4
20260509095516 64 52 1.0 3.0 0.00 0.44 0.01 86 1017.5
20260509094537 64 40 1.0 3.0 0.00 0.44 0.01 86 1017.6
20260509093517 63 59 1.0 2.0 0.00 0.44 0.01 87 1017.6
20260509092517 63 55 1.0 2.0 0.00 0.44 0.01 87 1017.6
20260509091516 63 50 2.0 4.0 0.00 0.44 0.01 87 1017.6
20260509090524 63 40 2.0 4.0 0.00 0.44 0.01 88 1017.7
20260509085524 63 42 2.0 3.0 0.00 0.44 0.01 88 1017.5
20260509084524 63 48 1.0 2.0 0.00 0.44 0.01 92 1017.7
20260509083524 61 32 1.0 2.0 0.00 0.44 0.01 93 1017.8
20260509082525 61 46 1.0 3.0 0.00 0.44 0.01 94 1017.8
20260509081524 60 53 1.0 3.0 0.00 0.44 0.01 96 1017.8
20260509080522 60 57 1.0 2.0 0.00 0.44 0.01 98 1017.8
20260509075524 60 51 1.0 4.0 0.00 0.44 0.01 99 1017.9
20260509074603 59 47 1.0 3.0 0.00 0.44 0.01 100 1017.9
20260509073525 59 39 2.0 4.0 0.00 0.44 0.01 100 1017.8
20260509072528 59 15 1.0 2.0 0.00 0.44 0.01 100 1017.8
20260509071525 59 25 1.0 2.0 0.00 0.44 0.01 100 1017.8
20260509070525 58 353 1.0 2.0 0.00 0.44 0.01 100 1017.9
20260509065525 58 12 1.0 2.0 0.00 0.44 0.01 100 1017.8
20260509064528 58 358 2.0 2.0 0.00 0.44 0.01 100 1017.8
20260509063528 57 6 2.0 3.0 0.00 0.44 0.01 100 1017.7
20260509062526 57 4 2.0 2.0 0.00 0.44 0.01 100 1017.7
20260509061527 57 355 2.0 4.0 0.00 0.44 0.01 100 1017.7
20260509060525 57 359 1.0 3.0 0.00 0.44 0.01 100 1017.7
20260509055525 56 359 2.0 3.0 0.00 0.44 0.01 100 1017.7
20260509054524 56 359 2.0 2.0 0.00 0.44 0.01 100 1017.6
20260509053524 56 358 2.0 3.0 0.00 0.44 0.01 100 1017.6
20260509052525 57 350 2.0 5.0 0.00 0.44 0.01 100 1017.6
20260509051525 56 359 2.0 2.0 0.00 0.44 0.01 100 1017.6
20260509050524 56 1 2.0 3.0 0.00 0.44 0.01 100 1017.6
20260509045524 57 15 2.0 2.0 0.00 0.44 0.01 100 1017.6
20260509044525 56 358 2.0 2.0 0.00 0.44 0.01 100 1017.7
20260509043524 56 347 1.0 2.0 0.00 0.44 0.01 100 1017.7
20260509042524 56 358 1.0 2.0 0.00 0.44 0.01 100 1017.6
20260509041524 56 340 2.0 2.0 0.00 0.44 0.01 100 1017.6
20260509040525 56 333 2.0 2.0 0.01 0.44 0.01 100 1017.5
20260509035523 56 312 1.0 2.0 0.01 0.44 0.01 100 1017.5
20260509034525 56 319 1.0 2.0 0.01 0.44 0.01 100 1017.5
20260509033547 56 333 1.0 2.0 0.01 0.44 0.01 100 1017.4
20260509032525 57 320 1.0 2.0 0.01 0.44 0.01 100 1017.3
20260509031531 57 332 1.0 2.0 0.01 0.44 0.01 100 1017.2
20260509030525 57 306 0.0 1.0 0.00 0.43 0.00 100 1017.3
20260509025524 57 0.0 0.0 0.00 0.43 0.00 100 1017.2
20260509024546 57 341 0.0 1.0 0.00 0.43 0.00 100 1017.1
20260509023525 57 317 0.0 1.0 0.00 0.43 0.00 100 1017.1
20260509022525 57 0.0 0.0 0.00 0.43 0.00 100 1017.2
20260509021526 57 0.0 0.0 0.00 0.43 0.00 100 1017.2
20260509020527 57 318 0.0 1.0 0.00 0.43 0.00 99 1017.1
20260509015606 57 30 0.0 1.0 0.00 0.43 0.00 99 1017.1
20260509014528 57 36 0.0 1.0 0.00 0.43 0.00 99 1017.1
20260509013524 57 35 0.0 1.0 0.00 0.43 0.00 99 1017.1
20260509012525 57 330 0.0 1.0 0.00 0.43 0.00 99 1017.1
20260509011526 58 0.0 0.0 0.00 0.43 0.00 99 1017.1
20260509010524 58 0.0 0.0 0.00 0.43 0.00 99 1017.1
20260509005525 58 0.0 0.0 0.00 0.43 0.00 99 1017.2
20260509004526 58 0.0 0.0 0.00 0.43 0.00 99 1017.2
20260509003525 58 339 0.0 1.0 0.00 0.43 0.00 99 1017.2
20260509002605 58 339 1.0 1.0 0.00 0.43 0.00 99 1017.2
20260509001524 57 342 0.0 1.0 0.00 0.43 0.00 99 1017.3
20260509000525 57 0.0 0.0 0.00 0.43 0.00 98 1017.4
20260508235524 56 0.0 0.0 0.00 0.43 0.00 98 1017.5
20260508234524 56 0.0 0.0 0.00 0.43 0.00 98 1017.5
20260508233524 56 0.0 0.0 0.00 0.43 0.00 98 1017.5
20260508232522 57 0.0 0.0 0.00 0.43 0.00 98 1017.5
20260508231522 57 0.0 0.0 0.00 0.43 0.00 98 1017.5
20260508230522 58 316 1.0 1.0 0.00 0.43 0.00 98 1017.5
20260508225521 58 0.0 1.0 0.00 0.43 0.00 98 1017.5
20260508224520 58 0.0 0.0 0.00 0.43 0.00 97 1017.6
20260508223520 57 0.0 0.0 0.00 0.43 0.00 97 1017.6
20260508222520 57 0.0 0.0 0.00 0.43 0.00 97 1017.5
20260508221518 57 0.0 0.0 0.00 0.43 0.00 97 1017.6
20260508220520 57 0.0 0.0 0.00 0.43 0.00 97 1017.6
20260508215517 57 0.0 0.0 0.00 0.43 0.00 97 1017.7
20260508214537 58 0.0 0.0 0.00 0.43 0.00 97 1017.6
20260508213537 58 0.0 0.0 0.00 0.43 0.00 97 1017.5
20260508212537 58 0.0 0.0 0.00 0.43 0.00 97 1017.4
20260508211533 58 0.0 0.0 0.00 0.43 0.00 97 1017.4
20260508210525 59 0.0 0.0 0.00 0.43 0.00 97 1017.4
20260508205525 59 0.0 0.0 0.00 0.43 0.43 97 1017.3
20260508204525 59 6 1.0 1.0 0.00 0.43 0.43 97 1017.2
20260508203526 59 0.0 0.0 0.00 0.43 0.43 97 1017.3
20260508202525 59 0.0 0.0 0.00 0.43 0.43 97 1017.4
20260508201525 59 0.0 0.0 0.00 0.43 0.43 97 1017.5
20260508200525 59 0.0 0.0 0.00 0.43 0.43 97 1017.5
20260508195524 59 0.0 0.0 0.00 0.43 0.43 96 1017.5
20260508194545 59 0.0 0.0 0.00 0.43 0.43 96 1017.6
20260508193526 59 0.0 0.0 0.00 0.43 0.43 96 1017.5
20260508192524 59 0.0 0.0 0.00 0.43 0.43 96 1017.4
20260508191525 59 348 0.0 1.0 0.00 0.43 0.43 95 1017.4
20260508190525 59 0.0 0.0 0.00 0.43 0.43 95 1017.2
20260508185526 60 0.0 0.0 0.00 0.43 0.43 95 1017.1
20260508184525 60 338 0.0 1.0 0.00 0.43 0.43 95 1017.0
20260508183525 60 0.0 0.0 0.00 0.43 0.43 94 1016.8
20260508182524 60 0.0 0.0 0.00 0.43 0.43 94 1016.8
20260508181546 60 0.0 0.0 0.00 0.43 0.43 94 1016.6
20260508180526 60 0.0 0.0 0.00 0.43 0.43 93 1016.5
20260508175524 61 77 0.0 1.0 0.00 0.43 0.43 93 1016.4
20260508174527 61 132 0.0 1.0 0.00 0.43 0.43 93 1016.3
20260508173546 61 172 0.0 1.0 0.00 0.43 0.43 92 1016.3
20260508172526 61 342 1.0 1.0 0.00 0.43 0.43 91 1016.2
20260508171524 61 0.0 0.0 0.00 0.43 0.43 90 1016.0
20260508170527 61 0.0 0.0 0.00 0.43 0.43 90 1016.0
20260508165605 62 0.0 0.0 0.00 0.43 0.43 90 1015.9
20260508164526 62 148 0.0 1.0 0.00 0.43 0.43 90 1016.1
20260508163526 62 176 1.0 1.0 0.00 0.43 0.43 89 1016.2
20260508162526 63 163 1.0 1.0 0.00 0.43 0.43 88 1016.1
20260508161545 63 177 1.0 1.0 0.00 0.43 0.43 88 1016.0
20260508160525 63 131 0.0 1.0 0.00 0.43 0.43 86 1015.8
20260508155525 63 118 0.0 1.0 0.00 0.43 0.43 85 1015.8
20260508154525 64 0.0 0.0 0.00 0.43 0.43 85 1015.6
20260508153525 63 93 0.0 1.0 0.00 0.43 0.43 87 1015.6
20260508152525 62 51 0.0 1.0 0.00 0.43 0.43 88 1015.5
20260508151525 62 87 0.0 1.0 0.00 0.43 0.43 90 1015.7
20260508150525 62 68 0.0 1.0 0.00 0.43 0.43 91 1015.8
20260508145525 62 80 1.0 2.0 0.01 0.43 0.43 92 1015.8
20260508144525 61 34 1.0 2.0 0.02 0.43 0.43 91 1015.8
20260508143525 61 29 1.0 1.0 0.08 0.43 0.43 91 1015.8
20260508142525 60 30 1.0 2.0 0.21 0.43 0.43 90 1015.8
20260508141525 60 42 1.0 2.0 0.43 0.43 0.43 90 1015.9
20260508140525 60 29 1.0 2.0 0.43 0.43 0.43 92 1015.9
20260508135525 60 14 1.0 1.0 0.42 0.42 0.42 93 1015.9
20260508134545 60 340 2.0 6.0 0.41 0.41 0.41 93 1015.9
20260508133525 60 325 4.0 9.0 0.35 0.35 0.35 93 1016.4
20260508132525 60 312 11.0 19.0 0.22 0.22 0.22 90 1016.3
20260508131525 61 290 16.0 22.0 0.00 0.00 0.00 85 1015.8
20260508130546 66 284 18.0 32.0 0.00 0.00 0.00 77 1015.4
20260508125525 72 0.0 0.0 0.00 0.00 0.00 63 1014.4
20260508124526 73 0.0 0.0 0.00 0.00 0.00 63 1014.2
20260508123525 74 128 0.0 2.0 0.00 0.00 0.00 60 1014.2
20260508122524 75 105 1.0 3.0 0.00 0.00 0.00 59 1014.3
20260508121523 75 114 1.0 4.0 0.00 0.00 0.00 60 1014.3
20260508120543 74 105 2.0 5.0 0.00 0.00 0.00 60 1014.5
20260508115523 75 127 2.0 7.0 0.00 0.00 0.00 60 1014.5